Terug naar catalogus

SCOUT B DEB

LostUNKNOWN
NORAD 28793·DEBRIS·🇺🇸 United States

Gelanceerd Aug 10, 1965 vanaf Wallops Flight Facility

Loading…

Volgende Passages (komende 24 uur)

TLE

VerouderendSource: Space-Track

Epoch: Aug 3, 2026, 16:41 UTC

1 28793U 65063C   26215.69543733  .00000596  00000-0  27080-2 0  9994
2 28793  69.2012 215.9832 0762536 284.9462  66.8391 12.13389739482323

Volg SCOUT B DEB in realtime met AllMySat

Download on the App Store